GFSSW_700_spd_159.txt.gz
Wind_Speed
8 10 12 14 15 17 19 20 22 22 21 19 17 15 14 11 7 7 9 14 14 13 12 10 10 11 7 12 13 6 17 13 14 12 13 12 11 14 14 11 9 10 10 11 14
7 8 10 12 14 15 17 19 20 21 22 22 22 21 19 16 11 11 10 16 16 14 9 8 7 5 10 17 13 5 11 14 9 12 12 14 10 11 16 17 13 10 11 13 11
7 8 9 10 11 13 14 15 17 19 21 21 21 20 19 18 14 14 18 19 18 15 8 5 4 7 11 17 10 7 17 18 14 11 9 14 11 11 14 19 19 13 12 11 9
8 8 9 10 10 11 12 13 13 15 18 20 20 19 18 16 12 20 20 20 20 16 10 5 0 6 9 16 0 10 18 21 13 9 8 10 14 13 14 18 20 17 14 12 11
10 10 10 10 10 11 11 11 12 12 14 17 19 20 20 19 14 19 22 21 23 17 12 6 5 3 11 12 9 14 22 19 14 11 7 12 15 14 12 16 18 19 18 15 13
12 11 11 11 11 11 11 11 11 11 12 14 17 19 21 20 18 19 22 23 24 19 14 9 8 3 8 15 9 24 23 22 18 14 10 13 17 9 11 12 15 17 18 18 18
14 13 12 12 11 11 11 11 11 11 11 13 15 19 21 17 22 21 24 25 25 22 15 12 11 3 3 12 8 25 27 24 19 16 5 10 16 12 10 13 12 14 16 16 17
17 15 14 13 12 11 12 12 12 12 12 13 14 17 18 24 27 26 25 25 26 23 17 16 16 8 5 5 9 22 24 25 22 19 10 1 9 15 11 11 13 14 14 15 14
20 18 16 15 13 12 12 12 13 13 13 14 14 14 18 26 24 23 24 25 26 26 22 21 18 14 10 7 13 23 25 23 27 21 12 6 7 10 12 11 14 15 14 12 12
23 21 18 16 15 13 13 12 14 15 16 15 14 14 15 20 20 20 24 27 28 26 24 24 21 20 17 11 11 12 26 22 23 22 21 16 9 6 12 11 14 16 14 13 12
25 24 21 19 16 13 13 14 16 19 20 20 17 16 20 19 21 22 22 26 30 30 29 28 24 29 24 15 13 11 11 14 16 18 29 21 16 6 6 10 11 17 18 15 13
27 26 24 21 18 15 14 17 19 19 22 21 19 23 24 25 27 27 27 26 30 32 29 26 29 27 23 19 17 14 17 21 24 18 30 24 19 11 5 5 5 6 9 15 15
30 27 26 23 21 17 17 18 19 20 20 22 23 24 24 30 30 32 33 29 30 30 29 27 22 21 21 21 17 18 22 21 27 16 28 22 22 22 17 12 10 9 6 9 11
31 30 27 25 24 21 20 20 22 19 14 18 26 26 30 29 27 30 33 30 30 30 29 28 29 18 21 22 19 19 6 16 15 28 27 24 11 28 24 20 20 17 16 10 8
30 31 30 28 26 24 22 21 20 17 4 7 23 22 32 31 19 31 31 33 29 29 29 25 21 21 22 17 12 11 8 4 16 31 25 21 10 13 26 27 25 21 15 18 12
31 30 30 30 27 27 24 23 20 11 10 6 14 29 36 33 14 25 29 27 27 25 28 28 17 20 25 20 14 15 11 1 19 23 10 15 29 12 21 24 18 20 17 15 17
33 30 30 30 27 29 27 27 21 13 12 9 13 30 37 35 22 28 32 32 27 26 29 30 28 25 23 19 15 12 12 2 1 0 7 6 19 24 24 21 20 13 14 9 16
37 32 31 26 30 30 34 33 20 18 30 8 11 23 40 37 31 29 33 35 32 26 23 23 19 30 25 22 12 9 15 7 5 4 5 3 6 21 25 17 14 14 8 10 17
33 34 30 25 29 32 38 42 39 25 25 27 5 27 41 45 29 29 40 38 35 33 21 23 22 26 30 21 13 15 15 12 8 1 3 7 14 26 11 5 12 12 15 14 14
30 33 24 29 32 35 43 50 35 31 19 24 23 21 38 44 38 39 32 40 37 35 31 8 19 28 27 21 19 17 15 10 6 2 4 6 13 18 7 6 12 16 15 10 9
29 25 28 33 32 39 54 56 44 33 29 15 21 16 21 25 43 30 34 24 37 34 29 31 17 21 30 28 25 21 24 16 9 5 7 1 6 12 14 13 14 15 15 11 6
25 22 29 33 35 44 54 51 36 55 41 35 16 20 17 16 29 31 24 45 23 33 39 36 21 25 23 21 23 23 23 24 18 8 6 5 3 8 12 15 18 17 16 10 6
21 23 24 29 40 44 46 49 47 36 53 41 36 26 20 13 10 22 28 24 37 26 37 35 38 23 25 25 25 20 23 23 28 25 21 8 4 13 17 20 18 18 17 8 3
16 18 30 27 32 27 39 43 46 52 38 52 32 32 29 24 15 12 23 18 26 35 31 33 36 41 32 24 21 20 19 22 29 29 26 20 13 21 21 21 21 20 13 9 11
15 21 24 24 27 28 25 30 43 48 50 40 34 48 37 34 28 23 18 10 13 28 36 42 42 43 36 40 33 20 19 20 31 37 31 32 25 21 24 22 26 24 16 12 8
17 23 26 19 12 18 30 25 28 41 47 48 50 40 38 44 43 32 25 17 13 10 14 42 37 43 41 35 42 35 27 24 21 38 36 34 28 18 24 28 29 25 18 18 13
16 21 23 22 11 16 22 25 22 29 35 41 36 38 45 47 41 38 33 27 19 11 10 11 45 46 37 38 38 33 37 29 20 19 19 26 30 28 28 28 28 29 22 20 15

GFSSW_700_spd_162.txt.gz
Wind_Speed
11 12 15 17 19 20 22 22 21 19 18 17 15 14 12 10 8 7 9 12 14 12 5 6 7 5 9 11 7 2 5 8 3 3 8 10 9 13 11 7 8 9 9 11 12
10 11 13 15 16 18 20 21 23 24 24 23 21 19 18 16 12 11 9 14 16 13 9 3 2 3 10 13 5 5 8 5 1 5 12 12 11 12 16 12 11 10 12 13 11
10 10 12 13 14 16 17 19 20 22 23 23 24 24 23 21 16 14 16 19 17 14 9 3 1 4 10 12 4 11 14 5 6 8 11 13 13 13 16 16 16 12 11 11 11
11 11 11 12 13 14 15 16 17 19 20 22 23 22 22 20 14 17 22 20 17 15 9 3 3 6 10 11 4 7 12 9 10 10 11 11 13 13 16 17 18 16 13 12 14
13 13 12 12 13 14 14 14 15 16 18 19 21 22 22 22 18 16 22 20 19 15 12 5 3 5 9 6 5 10 13 13 11 10 10 12 14 13 15 17 19 18 18 16 15
14 14 14 13 13 13 14 14 14 14 15 17 19 22 24 23 20 18 23 21 19 17 14 7 4 1 9 6 5 13 15 17 13 10 11 10 15 10 12 14 17 17 19 21 20
17 15 14 15 14 14 14 14 14 14 14 16 17 20 25 19 23 22 24 23 21 19 15 11 10 3 6 5 8 14 20 17 12 9 10 10 14 14 9 12 14 15 16 19 20
19 18 16 15 15 14 16 14 15 15 15 15 16 20 22 24 28 26 27 26 24 21 18 15 14 7 3 7 9 17 19 19 14 12 6 5 9 13 12 8 10 13 13 15 17
23 21 19 17 16 15 17 15 16 17 17 16 16 18 19 25 28 28 29 26 26 24 22 20 18 12 4 1 12 22 19 21 17 17 10 1 7 9 15 13 9 12 13 13 14
25 24 21 20 18 15 18 16 17 18 19 18 18 16 16 24 25 28 28 28 27 27 25 24 22 17 11 5 12 19 17 24 15 14 17 12 6 7 12 16 12 10 12 14 14
27 26 24 22 20 17 18 18 19 21 22 20 13 21 22 24 26 27 28 29 30 30 28 27 25 23 17 10 6 9 11 18 13 16 17 16 14 8 8 13 14 12 11 11 13
28 28 26 24 22 20 19 20 20 21 21 23 21 20 20 24 29 29 28 29 32 32 32 30 29 28 21 17 15 13 13 16 15 7 18 24 21 13 13 8 10 9 10 11 11
28 28 27 26 23 21 21 20 20 21 23 22 25 25 23 26 33 35 33 31 32 33 35 38 32 30 25 24 21 18 17 16 19 19 13 17 23 22 18 15 13 10 11 10 9
28 28 27 27 25 23 22 21 18 18 14 20 25 28 31 28 33 38 36 34 33 34 34 34 36 22 23 26 22 21 13 13 15 17 13 16 6 26 23 20 18 12 12 12 12
29 27 27 26 26 24 23 21 17 12 3 7 19 22 31 35 28 38 39 36 34 34 35 28 23 28 23 26 25 19 9 14 17 15 16 21 8 16 12 25 22 20 11 14 12
31 28 27 26 26 27 23 22 18 11 10 6 11 26 30 37 24 29 38 37 32 28 30 23 25 23 25 22 20 13 9 7 5 17 8 17 22 13 17 13 14 16 14 13 16
32 29 29 25 25 27 26 26 20 13 11 8 12 24 31 39 28 26 41 40 36 23 31 30 23 25 25 20 20 15 7 4 3 3 6 15 15 18 11 14 16 15 10 14 14
28 30 29 24 27 29 32 34 20 18 29 8 15 24 33 38 36 23 35 43 42 34 26 27 19 30 25 27 20 16 11 8 6 5 4 9 9 7 12 13 15 9 13 11 12
28 27 25 27 28 31 37 44 41 26 24 22 11 20 30 35 35 31 37 43 44 41 22 27 24 28 32 26 23 14 11 12 8 4 2 5 7 13 12 11 4 19 20 18 12
25 25 23 31 31 33 42 49 34 33 22 26 36 9 26 39 34 37 37 42 43 42 32 8 14 24 30 28 23 20 12 10 9 5 4 5 4 8 11 2 5 16 15 14 9
22 21 25 32 32 37 50 54 37 31 27 21 17 22 18 36 43 38 31 20 39 39 31 21 16 16 26 27 27 23 19 13 9 7 8 2 3 5 10 7 8 6 8 10 8
18 19 23 29 31 43 50 51 45 34 39 23 16 21 16 30 43 33 39 37 21 35 39 33 12 15 19 24 28 27 26 20 18 9 7 5 7 4 2 1 6 9 10 11 9
16 17 22 27 30 41 44 44 47 49 34 40 26 20 20 17 28 42 29 36 20 26 39 36 21 13 14 20 19 20 20 21 17 17 20 11 6 6 4 4 4 11 14 15 11
12 10 20 24 26 27 37 37 42 47 43 40 38 35 22 18 14 28 34 26 26 34 26 34 37 32 26 22 21 21 21 18 18 20 18 21 20 18 11 10 13 19 20 17 12
11 13 16 14 24 26 24 24 35 43 45 38 50 38 40 29 22 16 28 29 24 26 39 32 37 39 38 36 28 17 27 25 22 16 21 22 26 24 20 17 19 24 23 19 16
11 15 17 16 16 21 29 21 19 38 41 51 46 38 43 41 36 23 19 19 10 17 32 40 36 35 40 31 33 35 30 26 24 19 20 23 30 26 21 21 21 21 22 20 17
13 15 16 17 15 10 18 28 19 29 45 44 46 46 33 45 40 37 30 20 15 15 14 21 32 33 29 36 39 36 41 38 36 26 18 18 29 27 20 24 21 22 26 24 21

GFSSW_700_spd_165.txt.gz
Wind_Speed
12 15 18 20 21 22 21 21 20 18 17 15 14 13 11 8 6 7 7 10 9 8 2 1 3 7 11 12 6 6 6 4 7 7 6 10 10 8 9 9 6 6 8 11 13
11 12 15 18 20 22 23 23 24 24 23 21 19 18 16 14 9 10 9 11 12 9 3 2 2 5 9 6 4 6 6 4 6 7 8 11 10 11 12 9 10 10 13 12 12
10 12 13 15 17 19 21 22 24 25 26 26 26 24 22 18 13 14 14 15 14 11 5 2 2 4 7 4 5 6 2 5 4 7 11 11 13 13 14 14 14 12 11 12 13
11 12 13 14 15 17 18 19 20 22 24 25 25 25 25 23 16 17 19 20 16 14 10 5 2 6 6 6 4 2 3 2 2 6 11 11 14 16 16 15 14 13 13 14 16
12 12 13 13 14 15 16 17 18 19 21 23 24 25 24 23 21 11 21 21 17 14 13 7 2 4 9 3 4 5 4 6 3 8 13 11 14 14 16 16 16 14 14 15 17
15 14 13 14 14 15 16 16 17 18 18 20 21 24 25 24 21 19 20 21 18 15 14 9 5 4 6 3 7 6 4 7 7 10 15 10 10 13 13 15 17 18 18 17 15
19 17 15 14 14 15 17 16 16 17 17 18 20 22 26 20 22 26 20 22 20 18 15 13 8 3 5 5 7 7 9 11 8 8 12 11 11 11 10 12 13 17 18 18 18
22 21 19 17 15 15 16 16 16 17 18 17 19 21 23 23 24 27 24 25 23 20 19 17 10 4 2 4 9 10 9 11 9 6 8 12 11 8 9 10 9 11 16 17 17
24 23 21 20 18 16 17 16 17 18 19 18 19 20 19 23 26 28 27 26 24 23 22 19 12 8 4 3 10 13 9 13 8 9 3 7 9 7 8 9 8 8 10 13 15
26 25 24 23 21 19 18 17 17 19 20 20 20 18 15 23 27 30 28 28 26 25 25 22 16 12 9 7 8 14 14 15 12 5 9 3 2 5 6 10 9 8 8 8 11
28 27 26 25 23 21 20 19 18 21 22 21 12 21 14 21 28 32 31 31 28 27 29 26 22 20 15 8 5 10 13 8 9 9 10 10 6 5 4 10 11 11 9 8 8
28 27 27 27 25 23 21 21 20 20 21 22 24 20 22 21 29 33 33 34 33 31 31 29 28 23 16 11 9 8 9 9 8 13 13 14 13 12 12 7 9 9 12 10 9
29 27 26 28 26 25 23 21 21 20 23 23 24 27 21 22 29 35 36 35 33 33 34 35 30 29 22 17 14 14 13 13 8 10 14 14 14 16 17 16 14 11 11 13 11
30 29 26 27 26 25 23 22 19 18 14 20 22 28 30 27 30 37 37 35 34 33 33 31 34 22 25 26 20 19 16 13 13 14 6 11 2 4 18 18 18 15 12 13 11
30 30 28 26 25 25 24 21 17 13 4 8 19 22 31 35 28 40 39 36 35 37 36 31 30 32 29 28 33 19 16 11 15 11 7 14 5 7 7 20 27 20 17 16 13
33 28 29 27 25 26 24 21 18 11 11 8 12 24 28 35 31 32 42 38 32 29 32 23 27 24 35 30 24 22 17 10 2 9 5 8 10 5 6 7 8 21 22 19 16
32 30 29 28 25 26 26 25 19 14 12 11 15 24 28 37 39 24 45 43 31 22 22 31 19 26 26 25 20 23 15 5 4 5 1 7 10 17 9 7 7 7 9 21 19
31 31 28 27 30 29 32 32 20 18 25 9 19 22 31 34 35 37 32 44 40 31 27 24 20 29 24 28 24 25 18 8 4 4 4 7 8 12 8 9 9 7 17 19 25
29 29 27 30 31 32 37 41 28 24 29 13 14 19 27 33 26 34 32 42 49 46 21 26 19 29 26 29 28 25 19 17 7 6 4 6 9 12 8 10 7 16 29 24 20
26 27 29 32 34 36 41 45 28 24 23 35 18 14 24 33 27 35 35 35 45 47 34 15 14 22 34 28 26 20 23 13 10 7 6 5 6 9 4 2 5 15 23 19 17
19 22 28 32 34 40 48 42 28 32 22 22 36 20 14 30 34 33 31 19 39 40 42 20 15 22 27 31 30 30 21 13 12 9 12 6 9 12 10 2 5 10 15 19 16
15 15 24 29 33 44 47 38 36 30 36 25 20 25 31 17 37 34 36 32 17 37 46 39 9 11 23 21 31 33 31 28 15 8 13 11 13 8 6 9 11 11 16 18 17
12 14 20 23 26 36 36 40 32 43 34 34 26 25 21 23 21 38 32 32 20 28 39 43 14 13 12 20 24 28 29 28 22 16 19 16 13 12 9 10 13 14 15 14 16
9 7 16 21 27 21 24 26 37 40 43 34 30 23 22 18 22 23 30 29 34 20 32 36 25 22 21 23 23 23 26 29 26 20 17 19 17 19 15 10 10 14 18 19 18
7 9 11 12 20 24 20 15 24 37 46 34 33 35 26 20 16 20 32 26 25 32 21 35 32 34 29 15 20 21 25 27 30 26 22 19 20 21 19 18 17 15 18 21 20
7 9 11 10 10 22 23 21 21 31 28 44 33 32 37 30 15 16 25 28 25 24 35 34 27 29 29 34 31 27 23 21 25 26 24 16 19 17 18 19 18 20 19 21 24
8 12 10 11 13 9 14 22 21 25 39 31 33 33 33 33 23 16 22 22 23 21 25 30 29 22 24 23 29 29 35 28 29 26 20 18 14 20 25 20 15 22 21 23 26

GFSSW_700_spd_168.txt.gz
Wind_Speed
16 20 22 23 23 23 22 21 19 17 15 14 12 11 9 7 5 6 9 10 8 5 1 2 7 11 14 12 10 11 8 11 10 7 5 7 6 6 8 7 5 5 6 10 16
13 15 19 22 24 25 26 26 25 23 21 20 18 16 14 11 8 7 10 11 11 7 2 1 6 9 10 7 6 8 11 9 7 6 8 7 6 8 8 5 3 6 12 12 13
11 13 15 17 20 23 25 26 27 27 27 26 24 22 19 16 12 14 13 12 13 10 5 2 4 7 5 4 4 7 8 6 9 10 10 11 12 12 9 5 5 7 11 11 11
12 13 14 15 16 19 21 23 25 27 27 28 28 28 25 21 13 16 17 15 15 11 7 2 3 4 2 4 4 5 7 6 7 9 10 10 15 15 11 8 8 10 9 10 12
14 13 14 14 15 16 18 20 21 23 24 26 27 27 26 26 24 12 20 20 16 12 10 5 2 2 4 3 5 7 4 5 7 11 10 10 12 14 13 10 9 11 11 13 14
17 16 15 15 15 16 16 17 18 20 21 22 24 26 26 26 24 25 16 22 18 14 13 10 5 2 4 3 4 4 3 4 9 14 14 9 10 11 13 13 12 13 13 12 13
21 19 18 17 16 17 16 16 17 19 19 20 21 24 27 24 22 24 21 23 21 18 17 14 7 4 2 5 6 4 6 6 7 7 10 10 9 9 11 13 12 14 13 12 11
24 22 21 20 19 17 17 16 16 18 18 19 20 22 26 25 25 25 26 22 23 21 20 16 9 5 2 6 8 6 6 6 2 5 9 11 7 7 9 10 11 12 13 12 10
26 25 24 23 21 20 18 17 16 17 18 18 19 20 20 24 26 26 29 24 25 24 22 18 13 7 5 8 8 8 9 4 3 2 3 11 6 6 8 9 10 10 11 11 11
25 26 27 25 24 22 21 18 17 17 18 19 20 17 20 24 29 29 30 28 27 26 24 21 14 11 10 13 15 10 7 5 4 2 1 0 2 6 5 8 11 10 10 10 11
26 25 26 27 25 24 22 20 19 20 20 19 11 20 11 20 27 30 32 30 29 27 23 25 18 20 16 12 3 7 5 3 1 5 3 4 3 3 2 5 6 11 12 10 10
28 27 26 27 26 25 23 24 22 20 19 20 23 22 24 17 26 32 35 33 31 28 23 21 26 19 14 12 8 7 6 3 2 4 5 5 7 8 8 3 4 7 10 10 10
30 29 27 27 26 25 25 24 23 22 23 23 22 26 24 25 25 30 38 33 31 29 30 25 26 20 19 14 12 11 8 3 5 4 8 5 9 14 13 11 9 9 10 10 9
36 31 28 27 26 25 25 24 22 20 13 18 24 30 32 26 26 30 38 30 26 33 29 28 24 25 22 21 17 15 12 8 7 6 5 5 8 11 16 17 14 12 13 13 12
37 34 29 28 26 25 24 23 20 15 6 8 18 25 31 35 19 33 38 29 27 27 31 32 26 27 24 26 21 17 9 9 8 11 9 9 10 11 14 19 21 18 15 15 14
35 36 32 29 27 27 24 22 20 13 16 9 14 25 30 35 22 26 36 29 23 27 28 27 23 25 31 21 20 19 14 9 11 10 12 11 14 16 10 13 17 21 20 18 16
31 34 34 31 29 29 26 26 18 21 15 16 16 22 28 36 32 27 39 38 32 31 29 26 23 27 27 26 18 20 19 15 10 8 5 9 11 7 9 4 8 19 26 25 21
29 32 33 32 32 31 31 33 23 19 26 9 17 19 30 30 37 31 38 42 37 31 30 31 29 26 31 32 26 27 27 19 12 11 8 8 10 12 9 9 7 17 23 28 24
27 31 33 35 33 35 38 37 35 24 31 13 16 23 28 31 32 34 39 45 43 35 26 33 31 29 24 26 28 29 34 27 18 5 7 15 13 11 9 8 10 12 25 29 31
23 27 30 36 35 39 44 45 26 25 17 27 21 23 29 35 30 39 37 40 42 39 32 19 28 23 28 24 26 26 28 22 20 11 13 11 12 10 8 3 7 19 26 30 26
16 18 28 30 34 42 45 42 30 20 23 25 30 18 23 32 36 38 36 23 43 40 33 20 21 24 28 32 32 25 24 29 22 23 13 7 15 14 10 6 3 7 20 25 21
12 8 19 23 31 34 37 33 30 28 22 17 23 31 18 26 34 33 36 35 33 38 42 31 19 22 32 28 29 32 32 28 21 15 20 14 8 8 10 12 9 8 17 22 23
11 13 17 20 18 27 24 30 28 32 25 18 16 18 25 19 24 35 30 29 20 35 39 39 24 24 25 22 28 33 36 34 31 24 23 20 20 9 9 9 13 16 17 23 25
6 2 7 15 16 16 24 27 28 27 28 21 19 16 14 21 22 20 33 28 27 27 31 38 31 34 31 30 29 33 34 33 34 29 27 23 22 12 12 13 12 14 19 21 23
3 4 9 8 11 14 14 13 25 33 30 20 21 18 21 16 18 22 27 28 26 29 32 34 35 30 28 16 35 32 37 37 38 36 32 26 22 23 17 17 14 18 18 20 22
3 3 6 9 8 12 14 14 16 21 27 33 22 28 19 17 15 21 23 27 26 30 29 29 28 30 31 19 20 28 34 36 38 38 36 30 25 19 19 21 22 22 19 21 20
6 7 5 8 6 6 14 16 14 16 26 29 25 22 24 20 11 7 21 26 22 26 31 31 30 27 32 32 27 28 29 27 28 30 29 31 27 20 20 21 23 20 18 23 22

GFSSW_700_spd_171.txt.gz
Wind_Speed
21 23 23 23 22 21 19 18 17 15 13 12 11 10 7 5 5 5 7 8 9 6 1 5 10 16 13 6 5 6 7 9 10 8 9 10 7 8 6 7 7 9 7 13 17
17 21 24 26 27 27 26 25 24 22 20 17 15 14 12 10 7 7 10 12 10 6 1 5 6 7 4 5 4 6 11 9 7 8 9 7 5 10 6 6 1 3 13 14 18
15 16 19 23 26 28 29 30 29 28 26 25 22 20 17 14 11 12 13 15 13 9 4 3 5 5 4 3 5 11 15 9 10 11 9 10 9 9 4 2 2 6 10 13 15
15 16 17 18 21 24 27 29 30 30 30 30 28 25 23 18 8 17 16 17 16 12 7 2 5 6 4 7 8 14 11 11 10 11 10 11 11 9 8 9 9 8 9 9 15
18 17 17 18 18 19 21 24 26 28 29 29 28 27 27 25 22 16 18 20 18 13 10 4 3 1 4 8 11 12 11 12 11 11 11 11 10 13 12 6 7 8 10 10 14
20 20 19 19 18 18 18 19 21 23 25 27 27 27 27 27 22 26 16 20 18 14 11 7 1 1 4 8 2 12 10 11 12 13 12 11 11 7 10 9 7 8 9 9 10
21 22 22 21 20 19 18 18 18 19 21 23 24 25 28 25 27 24 23 17 20 16 13 10 7 1 4 9 12 12 12 11 10 8 9 12 12 6 9 12 9 8 10 9 8
23 23 23 24 23 21 19 18 18 18 19 20 22 24 28 21 28 26 26 22 22 20 18 15 11 4 7 9 13 15 15 19 9 8 6 3 7 7 7 11 10 8 8 8 8
24 24 24 24 24 23 22 19 18 18 18 19 20 22 21 26 26 25 28 25 21 23 22 19 12 7 9 15 17 11 6 13 10 6 5 3 7 8 11 8 7 8 7 7 7
27 25 25 25 25 24 23 22 20 19 19 19 21 18 21 19 22 27 28 28 20 23 23 21 14 12 18 26 17 27 21 11 11 6 3 6 7 10 11 9 8 9 6 6 6
28 28 26 26 24 25 23 22 20 20 24 22 8 18 6 14 24 30 29 32 22 22 24 22 20 23 23 13 9 10 3 10 7 5 5 3 7 8 10 9 9 10 10 9 8
33 30 27 27 25 23 24 21 27 22 22 20 25 20 17 16 15 24 29 32 28 29 26 23 27 23 20 16 10 5 8 8 5 3 4 6 6 7 11 10 9 11 12 12 11
33 34 30 27 26 24 23 29 23 25 29 26 26 30 26 21 20 25 33 33 31 31 32 31 29 22 21 15 14 15 14 10 5 4 7 5 10 12 11 11 12 11 12 13 14
33 31 32 29 27 24 23 25 23 21 16 24 25 28 29 24 27 23 32 35 29 36 34 32 26 25 19 20 19 19 13 4 4 8 7 8 1 14 14 14 14 14 14 15 16
38 31 28 32 28 25 31 22 20 14 7 12 28 21 27 38 17 33 30 35 33 33 36 37 31 26 29 27 22 14 11 12 8 9 9 13 11 17 16 16 16 16 16 16 16
36 34 27 32 30 27 24 20 21 14 21 12 21 22 28 36 28 25 32 36 32 30 36 34 31 27 29 26 24 24 8 11 11 13 18 14 15 17 18 15 16 17 17 18 18
34 32 29 29 29 33 27 23 16 24 27 20 23 22 33 35 36 32 39 42 41 35 39 38 35 32 27 29 27 23 18 18 14 14 11 20 14 7 12 11 14 18 20 20 20
24 26 26 29 33 30 30 32 24 23 33 12 25 24 35 35 41 37 38 44 41 38 36 37 40 33 32 33 30 30 28 22 15 12 14 11 11 10 11 8 10 15 18 21 21
22 20 26 30 34 34 38 38 43 26 32 19 22 28 31 36 41 38 41 47 46 42 34 37 40 34 32 32 34 29 35 29 28 20 12 20 16 16 13 13 13 13 17 22 23
21 19 23 29 35 37 40 50 34 31 14 37 25 28 32 38 43 46 43 44 45 43 37 26 32 33 32 27 36 36 31 32 33 15 13 12 19 18 19 16 15 15 21 22 24
14 8 13 21 30 36 48 47 38 26 24 27 36 27 30 35 42 46 41 36 45 44 37 30 29 34 31 38 36 38 32 38 29 25 13 12 17 17 17 15 10 13 23 24 26
9 11 14 18 24 33 40 37 32 35 20 28 23 33 27 32 39 40 44 43 40 44 46 39 20 30 35 31 32 34 32 37 31 25 25 17 7 23 17 14 10 7 19 22 23
6 12 14 11 25 30 30 33 33 38 30 27 22 25 25 30 34 39 36 37 30 46 47 41 31 30 30 32 33 36 36 32 34 27 22 19 14 12 13 13 11 10 15 22 24
1 7 11 15 20 20 29 32 37 35 35 30 27 22 26 26 26 32 38 39 41 34 43 43 36 32 32 34 36 40 38 38 33 34 25 26 19 14 12 11 11 12 16 21 26
4 9 6 10 13 20 19 18 34 37 33 31 28 27 29 27 27 27 34 33 34 31 44 44 47 35 32 30 33 35 41 37 42 37 34 28 21 20 11 13 13 13 16 22 28
5 10 6 11 9 16 12 18 21 34 32 31 28 28 26 27 30 25 22 37 37 33 37 42 41 41 35 33 30 37 40 44 41 39 35 30 24 13 17 14 17 11 15 17 18
5 8 7 8 11 11 21 20 17 21 31 32 25 26 26 23 13 19 16 26 35 37 36 38 39 40 39 35 31 32 39 39 44 40 37 36 29 23 17 16 19 21 17 22 19